Location: Olsztyn
(53.7767°N, 20.4765°E)
Time: 14:56:41
(UTC+02:00)

S-56A Canister/Altair - All Passes

Search period start: 19 July 2024 00:00
Search period end: 29 July 2024 00:00
Orbit: 638 x 2487 km, 38.9° (Epoch: 18 July)

Date Brightness Start Highest point End Pass type
(mag) Time Alt. Az. Time Alt. Az. Time Alt. Az.
19 Jul - 14:36:03 10° SSW 14:37:56 12° S 14:39:45 10° SSE daylight
19 Jul - 16:38:55 10° SSW 16:40:17 11° S 16:41:39 10° S daylight
20 Jul - 14:02:37 10° SSW 14:04:30 12° S 14:06:20 10° SSE daylight
20 Jul - 16:05:18 10° SSW 16:06:52 12° S 16:08:25 10° S daylight
21 Jul - 13:29:06 10° SSW 13:31:05 12° S 13:32:57 10° SSE daylight
21 Jul - 15:31:38 10° SSW 15:33:27 12° S 15:35:14 10° SSE daylight
22 Jul - 12:55:30 10° SSW 12:57:38 12° S 12:59:37 10° SE daylight
22 Jul - 14:57:55 10° SW 15:00:02 13° S 15:02:04 10° SSE daylight
23 Jul - 12:21:51 10° SSW 12:24:11 12° S 12:26:18 10° SE daylight
23 Jul - 14:24:08 10° SW 14:26:37 14° S 14:28:56 10° SSE daylight
24 Jul - 11:48:07 10° SSW 11:50:41 13° SSE 11:53:00 10° SE daylight
24 Jul - 13:50:19 10° SW 13:53:12 15° S 13:55:48 10° SSE daylight
25 Jul - 11:14:20 10° S 11:17:11 13° SSE 11:19:41 10° SE daylight
25 Jul - 13:16:26 10° SW 13:19:45 16° S 13:22:40 10° SE daylight
26 Jul - 10:40:32 10° S 10:43:38 13° SSE 10:46:20 10° SE daylight
26 Jul - 12:42:29 10° SW 12:46:17 17° S 12:49:31 10° SE daylight
26 Jul - 14:47:15 10° SW 14:48:35 11° SSW 14:49:51 10° S daylight
27 Jul - 10:06:43 10° S 10:10:03 13° SSE 10:12:57 10° SE daylight
27 Jul - 12:08:29 10° SW 12:12:48 18° S 12:16:22 10° SE daylight
27 Jul - 14:12:51 10° SW 14:15:10 13° SSW 14:17:17 10° S daylight
28 Jul - 09:32:53 10° S 09:36:26 13° SSE 09:39:31 10° SE daylight
28 Jul - 11:34:26 10° SW 11:39:17 19° S 11:43:11 10° SE daylight
28 Jul - 13:38:37 10° SW 13:41:43 15° SSW 13:44:29 10° SSE daylight
